Wind_Speed
8 8 8 9 9 10 10 9 10 9 9 9 9 10 10 11 12 12 12 12 11 11 11 10 10 9 9 9 9 10 10 11 11 11 12 12 12 12 13 13 13 13 14 14
9 9 9 9 9 10 10 10 10 10 10 10 10 11 11 11 12 12 13 12 12 12 11 11 10 10 9 9 10 10 10 10 11 11 12 12 12 13 13 13 13 13 14 14
10 9 9 10 10 10 10 11 11 11 11 11 11 11 12 12 13 13 13 13 12 12 11 10 10 10 10 9 10 10 10 11 11 11 12 12 13 13 13 13 12 13 13 14
10 10 10 10 10 10 10 11 12 12 11 11 11 11 12 12 13 13 13 13 13 12 11 11 11 11 11 11 11 11 11 11 11 11 12 12 12 13 13 13 13 13 13 14
11 11 11 11 10 11 11 12 12 12 12 12 12 12 11 12 13 13 13 14 13 13 12 12 12 12 12 12 12 12 12 12 12 12 13 13 13 13 14 13 13 14 14 14
12 12 12 11 11 11 11 11 12 13 13 13 12 13 11 12 13 13 13 14 14 13 13 13 13 13 13 14 13 13 13 13 13 13 14 14 14 14 14 14 14 14 14 14
12 12 12 12 11 12 12 11 12 12 13 12 12 12 11 11 11 12 13 13 13 14 14 14 14 14 14 14 14 14 14 14 14 14 14 15 15 15 15 15 14 14 15 15
14 14 13 13 12 13 12 12 12 13 13 13 13 12 11 11 12 12 13 14 14 15 16 16 15 15 15 15 15 15 15 15 15 15 15 15 16 15 15 15 15 15 15 15
15 15 14 14 13 14 13 14 14 14 15 15 14 13 12 13 13 13 14 15 15 16 16 17 17 16 16 15 16 16 16 16 16 16 17 17 17 16 16 16 16 16 16 16
16 16 16 15 15 15 15 15 15 16 16 16 15 14 13 14 14 14 15 15 16 16 16 16 16 17 17 17 16 17 17 17 17 17 18 18 18 17 17 17 17 18 18 18
16 17 17 16 16 15 16 16 17 17 18 18 17 16 15 14 15 15 16 16 16 16 16 16 17 17 18 18 18 18 18 18 18 18 18 18 18 17 18 18 19 19 19 19
17 17 17 17 17 17 17 17 18 18 18 19 19 17 16 15 15 15 16 16 17 17 17 17 16 16 17 18 19 19 19 19 19 19 19 19 18 18 19 19 19 20 21 21
18 18 18 19 19 19 19 18 19 19 20 19 19 18 17 17 16 16 17 17 17 17 18 18 17 17 18 19 19 19 20 20 20 20 20 19 19 20 20 21 21 21 21 22
19 20 20 21 21 21 20 20 20 20 21 21 20 20 19 18 18 18 18 18 18 18 19 19 19 19 19 20 20 20 20 21 21 21 20 20 20 21 21 21 21 22 22 22
20 21 21 22 23 22 22 22 21 22 22 23 22 22 20 20 21 20 20 19 19 20 21 21 21 20 20 20 21 21 21 22 21 21 21 21 22 22 22 23 23 23 23 23
21 21 21 21 22 23 24 23 23 23 23 24 24 23 22 22 23 22 22 21 21 21 21 22 23 23 22 22 22 22 22 23 23 23 23 23 23 23 23 24 24 24 24 24
21 21 22 22 22 23 24 23 23 24 24 24 25 24 24 24 24 23 23 23 23 22 23 23 24 24 24 24 24 24 24 24 24 24 24 24 24 24 24 25 25 25 25 25
22 22 23 24 24 24 23 23 24 24 24 24 25 25 25 24 24 25 25 24 24 24 24 25 25 25 25 25 25 25 25 25 25 26 26 26 26 26 26 26 25 25 25 26
22 23 24 25 25 25 24 23 24 24 24 24 24 25 25 25 25 25 25 26 25 25 25 26 26 26 26 26 26 26 26 26 27 27 28 27 27 27 27 26 26 26 26 27
23 23 24 24 25 26 25 24 25 25 26 25 25 25 26 26 26 26 27 27 27 27 26 27 27 27 27 26 27 27 27 28 28 28 27 27 27 26 26 26 26 27 27 27
23 24 24 25 26 26 25 25 25 25 26 26 26 27 27 28 28 28 28 28 28 28 27 27 28 28 28 28 28 28 28 28 28 28 27 27 27 27 27 27 27 28 28 28
25 25 25 25 26 26 25 25 26 26 27 28 28 29 29 29 29 29 29 29 29 28 28 28 28 28 28 29 29 29 29 29 29 29 28 28 28 28 29 29 29 29 29 30
26 26 27 27 27 26 26 26 27 28 28 28 29 29 30 30 30 30 30 30 30 29 29 30 30 30 29 30 30 31 31 31 31 31 30 30 30 30 30 30 30 29 29 30
27 27 27 28 28 28 28 28 29 29 29 29 30 30 30 30 30 31 31 31 31 31 31 30 30 31 30 30 30 31 32 32 32 31 31 31 31 31 31 31 30 29 29 29
28 28 28 29 28 29 30 31 31 31 31 31 31 31 31 31 31 31 31 32 32 32 32 31 31 31 31 31 31 31 31 31 31 31 31 31 32 31 31 31 30 31 30 30
29 29 29 29 29 31 31 31 33 33 34 33 33 32 32 32 32 32 32 32 32 32 32 31 32 32 32 32 32 32 32 32 32 31 31 32 32 31 31 31 31 31 30 29
Wind_Direction
267 261 262 262 258 255 255 256 254 252 252 251 250 251 254 251 249 252 255 254 253 254 256 259 260 264 269 273 275 273 271 272 273 271 272 273 273 274 274 275 278 281 281 279
262 260 260 259 259 257 257 257 255 254 256 254 254 253 255 255 253 254 254 255 254 254 257 259 260 263 267 273 277 277 277 277 276 274 273 274 275 275 273 273 279 284 284 283
262 262 262 262 261 261 258 257 255 256 257 256 256 255 255 257 255 256 256 254 253 254 258 259 261 266 269 273 277 279 280 279 278 277 278 278 279 279 278 279 280 284 286 288
263 261 260 262 263 264 263 260 257 257 259 261 260 259 260 260 258 257 257 255 253 255 256 260 264 267 269 273 275 278 279 279 279 278 280 283 283 281 280 280 281 284 287 288
263 263 263 264 264 261 262 261 260 258 260 261 262 263 261 261 260 260 257 255 254 254 255 260 263 266 269 271 273 275 275 277 278 280 280 282 282 282 282 282 282 283 285 287
264 263 263 265 264 263 262 261 262 262 263 262 263 266 263 263 263 260 257 255 257 258 258 262 264 263 268 271 272 273 273 274 276 278 281 281 282 282 283 282 281 283 285 287
262 262 261 259 258 259 259 261 265 267 266 267 266 266 266 262 263 260 257 256 258 260 261 263 265 265 269 271 271 271 271 272 274 277 279 282 284 283 281 282 282 284 285 286
263 263 261 257 256 258 259 261 262 265 268 270 269 268 267 265 266 263 258 257 260 263 266 266 266 267 269 271 271 271 271 271 272 275 278 281 284 281 281 282 284 285 286 286
266 265 262 258 257 257 257 259 262 265 266 266 266 269 269 269 269 265 260 258 260 263 266 267 268 269 269 270 271 271 270 271 271 273 277 280 282 280 281 283 285 285 285 287
266 265 263 260 259 258 258 259 260 263 267 268 266 267 268 271 272 270 265 262 262 262 263 265 268 268 268 268 272 273 274 271 270 273 276 279 279 279 280 282 284 285 286 287
267 266 264 261 262 262 261 261 262 264 267 269 268 267 267 269 270 267 266 265 265 265 263 263 265 267 269 269 270 272 274 274 273 275 277 279 277 278 280 282 284 285 286 287
265 266 264 262 261 263 263 263 264 264 268 268 268 268 266 267 269 268 266 266 266 265 265 265 268 269 270 270 272 271 273 273 274 275 277 279 278 279 280 281 283 284 285 286
265 265 266 265 264 263 262 262 263 265 266 267 267 269 268 268 269 269 267 267 268 267 268 271 272 272 272 273 272 271 271 271 272 274 276 277 278 279 280 282 282 283 283 284
266 265 264 263 265 264 264 263 263 264 265 266 268 269 269 268 268 268 268 267 267 268 270 272 273 272 272 272 272 271 270 271 271 272 275 277 279 280 280 281 282 283 283 284
267 266 266 265 265 264 265 264 264 265 266 267 268 268 268 267 266 266 268 267 266 267 269 270 270 270 272 272 272 272 271 270 271 272 274 276 278 280 281 281 282 283 284 284
269 267 267 266 264 264 264 264 265 266 267 267 268 268 268 267 265 265 265 266 267 267 268 269 270 270 270 271 271 273 274 272 272 272 273 275 277 280 282 282 282 284 284 284
269 269 268 267 265 265 265 266 267 268 269 268 268 269 267 267 265 264 264 265 266 267 268 269 271 272 271 271 273 273 273 272 271 272 274 275 277 279 280 281 281 282 283 283
268 268 269 269 266 265 269 269 268 268 268 268 269 268 267 267 266 265 264 265 265 264 266 268 270 271 271 272 272 272 271 272 273 273 274 275 276 278 279 280 281 281 282 282
268 269 269 270 270 270 272 273 271 269 268 268 270 269 268 268 268 266 265 265 265 264 265 267 268 270 270 272 273 273 273 273 274 275 276 277 277 278 278 279 279 280 281 282
269 270 269 272 273 274 276 276 274 271 270 269 269 269 269 269 268 267 265 264 265 265 266 266 267 268 270 271 273 274 275 275 275 276 276 277 277 276 276 277 278 280 281 283
268 269 270 272 274 275 276 275 274 273 274 272 271 270 268 268 269 268 267 266 265 265 266 267 267 267 268 270 271 273 275 275 276 276 276 276 276 275 275 277 278 280 281 283
270 270 270 272 273 275 274 275 274 275 275 274 274 273 271 269 269 268 267 266 264 264 265 266 267 266 267 268 270 272 272 274 276 276 275 274 275 275 276 276 278 280 281 283
270 270 272 272 273 274 274 275 274 275 275 276 276 274 273 271 269 268 268 267 266 265 265 265 266 266 267 268 269 270 271 273 274 275 275 275 275 276 276 276 277 279 280 281
270 270 272 272 271 271 272 272 272 273 274 273 274 273 272 273 271 269 268 268 267 266 266 267 267 267 268 268 269 271 272 273 274 275 276 276 275 275 276 277 277 277 278 279
273 273 273 273 273 272 271 271 272 271 272 274 275 274 273 271 269 268 267 267 267 267 267 267 267 267 267 266 268 271 273 275 276 276 277 275 274 275 276 275 275 275 276 277
275 274 274 274 272 272 272 272 272 274 274 275 275 275 273 271 270 269 268 268 268 268 268 268 267 267 268 268 270 272 273 274 275 276 277 277 275 274 274 273 274 276 276 276
Height
5834 5835 5835 5836 5836 5836 5836 5837 5837 5837 5837 5838 5838 5838 5839 5839 5839 5840 5840 5840 5841 5841 5841 5841 5841 5841 5840 5840 5840 5839 5838 5838 5837 5836 5836 5835 5835 5834 5833 5833 5832 5831 5830 5829
5832 5832 5833 5832 5833 5833 5834 5834 5834 5834 5834 5835 5835 5836 5836 5836 5836 5836 5837 5837 5838 5838 5838 5838 5838 5838 5838 5837 5837 5836 5836 5835 5834 5833 5833 5832 5831 5831 5830 5829 5829 5827 5826 5825
5828 5830 5829 5829 5830 5830 5831 5831 5831 5832 5832 5832 5833 5833 5833 5833 5833 5833 5833 5834 5834 5835 5835 5835 5835 5835 5835 5835 5834 5834 5833 5832 5831 5830 5830 5829 5829 5828 5827 5826 5825 5824 5823 5822
5825 5826 5826 5826 5827 5827 5828 5828 5828 5829 5829 5829 5830 5830 5830 5830 5830 5830 5830 5830 5831 5831 5832 5832 5832 5832 5832 5832 5831 5830 5830 5829 5828 5828 5827 5826 5825 5825 5824 5823 5822 5821 5819 5818
5822 5822 5823 5823 5824 5824 5825 5825 5825 5825 5826 5826 5827 5827 5828 5826 5826 5826 5826 5827 5827 5828 5828 5829 5829 5829 5829 5828 5828 5827 5827 5826 5825 5825 5824 5823 5822 5821 5820 5819 5818 5817 5816 5815
5819 5819 5819 5820 5820 5821 5821 5822 5822 5822 5823 5824 5824 5824 5824 5823 5823 5822 5823 5823 5823 5824 5825 5825 5825 5825 5825 5825 5824 5824 5823 5823 5822 5821 5821 5820 5819 5818 5817 5816 5815 5814 5813 5811
5815 5815 5816 5816 5817 5817 5818 5819 5820 5819 5820 5820 5820 5820 5821 5820 5819 5819 5819 5819 5820 5820 5821 5821 5821 5821 5821 5821 5820 5820 5820 5819 5818 5818 5817 5816 5815 5814 5813 5812 5811 5810 5809 5808
5812 5812 5812 5813 5813 5814 5815 5816 5817 5817 5817 5817 5816 5816 5818 5816 5816 5815 5815 5816 5816 5816 5817 5817 5817 5817 5817 5817 5816 5816 5816 5815 5815 5814 5813 5813 5812 5811 5810 5808 5807 5806 5805 5804
5808 5809 5809 5809 5810 5811 5811 5812 5813 5813 5813 5813 5813 5814 5813 5812 5812 5811 5811 5812 5812 5812 5813 5813 5813 5813 5813 5813 5812 5812 5811 5811 5810 5810 5809 5809 5807 5806 5805 5804 5803 5802 5801 5800
5803 5804 5805 5805 5805 5807 5808 5808 5808 5808 5808 5809 5809 5809 5810 5808 5808 5808 5807 5807 5808 5808 5808 5808 5808 5808 5808 5808 5808 5807 5807 5806 5806 5805 5805 5804 5803 5802 5801 5800 5799 5797 5796 5795
5799 5800 5801 5801 5801 5802 5803 5803 5803 5804 5804 5804 5805 5807 5805 5804 5804 5803 5803 5803 5803 5803 5804 5804 5804 5804 5803 5803 5803 5803 5802 5801 5801 5801 5800 5799 5798 5797 5796 5795 5794 5793 5792 5790
5794 5795 5795 5796 5797 5797 5797 5798 5799 5799 5799 5799 5799 5803 5800 5800 5799 5799 5798 5798 5798 5799 5799 5799 5799 5799 5798 5798 5798 5797 5797 5796 5796 5795 5795 5794 5793 5792 5791 5790 5789 5788 5787 5785
5789 5790 5790 5791 5793 5792 5792 5792 5793 5794 5794 5793 5794 5797 5795 5795 5794 5794 5794 5794 5794 5794 5794 5794 5794 5794 5793 5793 5792 5792 5791 5791 5791 5790 5790 5789 5788 5787 5786 5785 5783 5782 5781 5779
5783 5784 5786 5786 5786 5786 5786 5787 5787 5788 5788 5788 5789 5790 5790 5789 5789 5789 5789 5789 5789 5789 5789 5788 5788 5788 5788 5787 5787 5786 5786 5785 5785 5784 5784 5783 5782 5781 5780 5779 5778 5776 5775 5773
5777 5778 5778 5779 5779 5779 5780 5781 5782 5782 5782 5782 5783 5783 5784 5784 5783 5784 5783 5783 5783 5783 5783 5783 5783 5782 5782 5782 5781 5781 5780 5780 5779 5778 5778 5777 5776 5775 5774 5773 5772 5770 5769 5767
5771 5771 5772 5772 5773 5773 5773 5775 5775 5775 5775 5775 5775 5777 5777 5777 5777 5777 5777 5777 5777 5777 5777 5777 5776 5776 5776 5775 5775 5774 5774 5773 5773 5772 5771 5771 5770 5769 5768 5766 5765 5764 5762 5761
5765 5765 5765 5765 5766 5765 5767 5769 5768 5768 5768 5768 5768 5770 5769 5769 5770 5770 5770 5770 5770 5770 5770 5770 5770 5769 5769 5769 5768 5768 5767 5766 5766 5765 5764 5764 5763 5762 5760 5759 5758 5757 5755 5754
5759 5758 5758 5758 5759 5758 5762 5761 5761 5761 5761 5760 5760 5760 5761 5761 5762 5762 5763 5763 5763 5763 5763 5763 5762 5762 5762 5761 5761 5760 5760 5759 5758 5758 5757 5756 5755 5754 5753 5752 5750 5749 5748 5746
5752 5752 5751 5751 5750 5751 5753 5753 5753 5752 5753 5753 5753 5753 5753 5753 5753 5754 5755 5755 5755 5756 5755 5755 5755 5754 5754 5754 5753 5753 5752 5751 5751 5750 5749 5748 5747 5746 5745 5744 5742 5741 5740 5739
5745 5745 5745 5744 5744 5744 5747 5746 5744 5745 5745 5746 5745 5745 5745 5745 5746 5746 5746 5746 5747 5747 5747 5747 5747 5746 5746 5746 5745 5745 5744 5743 5742 5741 5740 5739 5739 5738 5737 5736 5735 5733 5732 5731
5738 5738 5738 5737 5736 5737 5738 5737 5737 5738 5738 5737 5736 5736 5736 5736 5737 5737 5737 5737 5738 5738 5738 5738 5738 5738 5738 5737 5737 5736 5735 5735 5734 5733 5732 5731 5730 5729 5728 5728 5727 5725 5724 5722
5730 5730 5730 5730 5729 5732 5729 5730 5730 5729 5727 5727 5726 5727 5727 5727 5727 5727 5728 5728 5728 5728 5729 5729 5729 5729 5729 5728 5728 5727 5727 5726 5725 5724 5723 5722 5721 5721 5720 5719 5718 5716 5715 5713
5722 5723 5722 5722 5724 5722 5721 5721 5720 5719 5719 5718 5717 5717 5717 5717 5717 5718 5718 5718 5718 5719 5719 5719 5719 5719 5719 5719 5718 5718 5717 5716 5716 5715 5714 5714 5713 5712 5711 5710 5709 5707 5706 5704
5714 5713 5713 5713 5713 5713 5712 5711 5711 5710 5709 5708 5707 5707 5707 5706 5707 5707 5708 5708 5708 5708 5709 5709 5709 5709 5709 5709 5708 5708 5707 5707 5706 5705 5704 5704 5703 5702 5701 5700 5699 5698 5697 5695
5705 5705 5704 5704 5704 5703 5703 5701 5701 5700 5699 5698 5697 5697 5696 5696 5696 5697 5697 5698 5698 5698 5698 5698 5698 5698 5698 5698 5698 5698 5697 5696 5696 5695 5694 5694 5693 5692 5691 5690 5690 5689 5688 5686
5697 5696 5695 5694 5694 5693 5693 5692 5690 5689 5688 5688 5687 5687 5686 5686 5685 5686 5686 5686 5687 5687 5687 5687 5687 5688 5687 5687 5687 5687 5687 5686 5686 5685 5684 5683 5683 5682 5681 5680 5680 5679 5678 5677